Time,TemperatureF,DewpointF,PressureIn,WindDirection,WindDirectionDegrees,WindSpeedMPH,WindSpeedGustMPH,Humidity,HourlyPrecipIn,Conditions,Clouds,dailyrainin,SoftwareType,DateUTC
2013-09-10 00:00:00,65.1,62.1,29.67,ESE,112,0.0,0.0,90,0.00,CLR,CLR,0.00,WeatherDisplay:10.37,2013-09-10 04:00:00,
2013-09-10 00:01:00,65.1,62.1,29.67,ESE,112,0.0,0.0,90,0.00,CLR,CLR,0.00,WeatherDisplay:10.37,2013-09-10 04:01:00,
2013-09-10 00:02:00,65.1,62.1,29.67,ESE,112,0.0,0.0,90,0.00,CLR,CLR,0.00,WeatherDisplay:10.37,2013-09-10 04:02:00,
2013-09-10 00:04:00,65.1,62.1,29.66,SE,135,0.0,0.0,90,0.00,CLR,CLR,0.00,WeatherDisplay:10.37,2013-09-10 04:04:00,
2013-09-10 00:06:00,65.1,62.1,29.66,SE,135,0.0,0.0,90,0.00,CLR,CLR,0.00,WeatherDisplay:10.37,2013-09-10 04:06:00,
2013-09-10 00:11:00,65.1,62.1,29.67,SE,135,0.0,0.0,90,0.00,CLR,CLR,0.00,WeatherDisplay:10.37,2013-09-10 04:11:00,
2013-09-10 00:12:00,65.1,62.1,29.67,SE,135,0.0,0.0,90,0.00,CLR,CLR,0.00,WeatherDisplay:10.37,2013-09-10 04:12:00,
2013-09-10 00:17:00,65.1,62.1,29.67,SE,135,0.0,0.0,90,0.00,CLR,CLR,0.00,WeatherDisplay:10.37,2013-09-10 04:17:00,
2013-09-10 00:22:00,64.9,61.9,29.65,SE,135,0.0,0.0,90,0.00,CLR,CLR,0.00,WeatherDisplay:10.37,2013-09-10 04:22:00,
2013-09-10 00:23:00,64.9,61.9,29.65,SE,135,0.0,0.0,90,0.00,CLR,CLR,0.00,WeatherDisplay:10.37,2013-09-10 04:23:00,
2013-09-10 00:28:00,64.9,61.9,29.66,SSE,158,0.0,0.0,90,0.00,CLR,CLR,0.00,WeatherDisplay:10.37,2013-09-10 04:28:00,
2013-09-10 00:33:00,64.9,61.9,29.66,SE,135,0.0,0.0,90,0.00,CLR,CLR,0.00,WeatherDisplay:10.37,2013-09-10 04:33:00,
2013-09-10 00:38:00,64.9,61.9,29.66,ESE,112,0.0,0.0,90,0.00,CLR,CLR,0.00,WeatherDisplay:10.37,2013-09-10 04:38:00,
2013-09-10 00:43:00,64.9,61.9,29.66,ESE,112,0.0,0.0,90,0.00,CLR,CLR,0.00,WeatherDisplay:10.37,2013-09-10 04:43:00,
2013-09-10 00:48:00,64.9,62.2,29.65,WNW,292,0.0,0.0,91,0.00,CLR,CLR,0.00,WeatherDisplay:10.37,2013-09-10 04:48:00,
2013-09-10 00:53:00,64.9,62.2,29.66,WNW,292,0.0,0.0,91,0.00,CLR,CLR,0.00,WeatherDisplay:10.37,2013-09-10 04:53:00,
2013-09-10 00:58:00,64.8,62.1,29.66,WNW,292,0.0,0.0,91,0.00,CLR,CLR,0.00,WeatherDisplay:10.37,2013-09-10 04:58:00,
2013-09-10 01:03:00,64.8,62.1,29.66,WNW,292,0.0,0.0,91,0.00,CLR,CLR,0.00,WeatherDisplay:10.37,2013-09-10 05:03:00,
2013-09-10 01:08:00,64.8,62.1,29.66,WNW,292,0.0,0.0,91,0.00,CLR,CLR,0.00,WeatherDisplay:10.37,2013-09-10 05:08:00,
2013-09-10 01:13:00,64.8,62.1,29.66,WNW,292,0.0,0.0,91,0.00,CLR,CLR,0.00,WeatherDisplay:10.37,2013-09-10 05:13:00,
2013-09-10 01:18:00,64.8,62.1,29.66,SW,225,0.0,0.0,91,0.00,CLR,CLR,0.00,WeatherDisplay:10.37,2013-09-10 05:18:00,
2013-09-10 01:23:00,64.8,62.1,29.65,WNW,292,0.0,0.0,91,0.00,CLR,CLR,0.00,WeatherDisplay:10.37,2013-09-10 05:23:00,
2013-09-10 01:28:00,64.6,61.9,29.65,WNW,292,0.0,0.0,91,0.00,CLR,CLR,0.00,WeatherDisplay:10.37,2013-09-10 05:28:00,
2013-09-10 01:33:00,64.6,61.9,29.65,WNW,292,0.0,0.0,91,0.00,CLR,CLR,0.00,WeatherDisplay:10.37,2013-09-10 05:33:00,
2013-09-10 01:38:00,64.6,61.9,29.65,WNW,292,0.0,0.0,91,0.00,CLR,CLR,0.00,WeatherDisplay:10.37,2013-09-10 05:38:00,
2013-09-10 01:44:00,64.6,61.9,29.65,South,180,0.0,0.0,91,0.00,CLR,CLR,0.00,WeatherDisplay:10.37,2013-09-10 05:44:00,
2013-09-10 01:49:00,64.6,61.9,29.65,SSE,158,0.0,0.0,91,0.00,CLR,CLR,0.00,WeatherDisplay:10.37,2013-09-10 05:49:00,
2013-09-10 01:54:00,64.6,61.9,29.64,SSE,158,0.0,0.0,91,0.00,CLR,CLR,0.00,WeatherDisplay:10.37,2013-09-10 05:54:00,
2013-09-10 01:59:00,64.6,61.9,29.65,SE,135,0.0,0.0,91,0.00,CLR,CLR,0.00,WeatherDisplay:10.37,2013-09-10 05:59:00,
2013-09-10 02:04:00,64.6,61.9,29.65,ESE,112,0.0,0.0,91,0.00,CLR,CLR,0.00,WeatherDisplay:10.37,2013-09-10 06:04:00,
2013-09-10 02:09:00,64.6,61.9,29.65,SE,135,0.0,0.0,91,0.00,CLR,CLR,0.00,WeatherDisplay:10.37,2013-09-10 06:09:00,
2013-09-10 02:14:00,64.6,61.9,29.65,SE,135,0.0,0.0,91,0.00,CLR,CLR,0.00,WeatherDisplay:10.37,2013-09-10 06:14:00,
2013-09-10 02:19:00,64.6,61.9,29.65,SE,135,0.0,0.0,91,0.00,CLR,CLR,0.00,WeatherDisplay:10.37,2013-09-10 06:19:00,
2013-09-10 02:24:00,64.2,61.5,29.65,SE,135,0.0,0.0,91,0.00,CLR,CLR,0.00,WeatherDisplay:10.37,2013-09-10 06:24:00,
2013-09-10 02:29:00,64.2,61.5,29.65,SE,135,0.0,0.0,91,0.00,CLR,CLR,0.00,WeatherDisplay:10.37,2013-09-10 06:29:00,
2013-09-10 02:34:00,64.2,61.5,29.65,SE,135,0.0,0.0,91,0.00,CLR,CLR,0.00,WeatherDisplay:10.37,2013-09-10 06:34:00,
2013-09-10 02:39:00,64.0,61.4,29.65,SE,135,0.0,0.0,91,0.00,CLR,CLR,0.00,WeatherDisplay:10.37,2013-09-10 06:39:00,
2013-09-10 02:44:00,64.0,61.4,29.65,SE,135,0.0,0.0,91,0.00,CLR,CLR,0.00,WeatherDisplay:10.37,2013-09-10 06:44:00,
2013-09-10 02:49:00,63.9,61.2,29.65,ESE,112,0.0,0.0,91,0.00,CLR,CLR,0.00,WeatherDisplay:10.37,2013-09-10 06:49:00,
2013-09-10 02:54:00,63.7,61.0,29.65,ESE,112,0.0,0.0,91,0.00,CLR,CLR,0.00,WeatherDisplay:10.37,2013-09-10 06:54:00,
2013-09-10 02:59:00,63.7,61.0,29.65,ESE,112,0.0,0.0,91,0.00,CLR,CLR,0.00,WeatherDisplay:10.37,2013-09-10 06:59:00,
2013-09-10 03:04:00,63.5,60.8,29.65,ESE,112,0.0,0.0,91,0.00,CLR,CLR,0.00,WeatherDisplay:10.37,2013-09-10 07:04:00,
2013-09-10 03:09:00,63.5,60.8,29.65,SE,135,0.0,0.0,91,0.00,CLR,CLR,0.00,WeatherDisplay:10.37,2013-09-10 07:09:00,
2013-09-10 03:14:00,63.3,60.6,29.65,SE,135,0.0,0.0,91,0.00,CLR,CLR,0.00,WeatherDisplay:10.37,2013-09-10 07:14:00,
2013-09-10 03:19:00,63.3,60.6,29.65,SE,135,0.0,0.0,91,0.00,CLR,CLR,0.00,WeatherDisplay:10.37,2013-09-10 07:19:00,
2013-09-10 03:24:00,63.1,60.5,29.65,SE,135,0.0,0.0,91,0.00,CLR,CLR,0.00,WeatherDisplay:10.37,2013-09-10 07:24:00,
2013-09-10 03:29:00,63.1,60.5,29.65,SE,135,0.0,0.0,91,0.00,CLR,CLR,0.00,WeatherDisplay:10.37,2013-09-10 07:29:00,
2013-09-10 03:34:00,63.1,60.5,29.66,SE,135,0.0,0.0,91,0.00,CLR,CLR,0.00,WeatherDisplay:10.37,2013-09-10 07:34:00,
2013-09-10 03:40:00,63.1,60.5,29.65,SE,135,0.0,0.0,91,0.00,CLR,CLR,0.00,WeatherDisplay:10.37,2013-09-10 07:40:00,
2013-09-10 03:45:00,63.0,60.3,29.65,SE,135,0.0,0.0,91,0.00,CLR,CLR,0.00,WeatherDisplay:10.37,2013-09-10 07:45:00,
2013-09-10 03:50:00,63.0,60.3,29.65,SE,135,0.0,0.0,91,0.00,CLR,CLR,0.00,WeatherDisplay:10.37,2013-09-10 07:50:00,
2013-09-10 03:55:00,63.0,60.3,29.66,SE,135,0.0,0.0,91,0.00,CLR,CLR,0.00,WeatherDisplay:10.37,2013-09-10 07:55:00,
2013-09-10 04:00:00,62.8,60.1,29.66,SE,135,0.0,0.0,91,0.00,CLR,CLR,0.00,WeatherDisplay:10.37,2013-09-10 08:00:00,
2013-09-10 04:05:00,62.8,60.1,29.66,SE,135,0.0,0.0,91,0.00,CLR,CLR,0.00,WeatherDisplay:10.37,2013-09-10 08:05:00,
2013-09-10 04:10:00,62.6,59.9,29.66,SE,135,0.0,0.0,91,0.00,CLR,CLR,0.00,WeatherDisplay:10.37,2013-09-10 08:10:00,
2013-09-10 04:15:00,62.6,59.9,29.66,SE,135,0.0,0.0,91,0.00,CLR,CLR,0.00,WeatherDisplay:10.37,2013-09-10 08:15:00,
2013-09-10 04:20:00,62.6,59.9,29.66,SE,135,0.0,0.0,91,0.00,CLR,CLR,0.00,WeatherDisplay:10.37,2013-09-10 08:20:00,
2013-09-10 04:25:00,62.6,59.9,29.66,SE,135,0.0,0.0,91,0.00,CLR,CLR,0.00,WeatherDisplay:10.37,2013-09-10 08:25:00,
2013-09-10 04:30:00,62.4,59.8,29.66,SE,135,0.0,0.0,91,0.00,CLR,CLR,0.00,WeatherDisplay:10.37,2013-09-10 08:30:00,
2013-09-10 04:35:00,62.4,59.8,29.66,SE,135,0.0,0.0,91,0.00,CLR,CLR,0.00,WeatherDisplay:10.37,2013-09-10 08:35:00,
2013-09-10 04:40:00,62.4,59.8,29.66,West,270,0.0,0.0,91,0.00,CLR,CLR,0.00,WeatherDisplay:10.37,2013-09-10 08:40:00,
2013-09-10 04:45:00,62.4,59.8,29.66,West,270,0.0,0.0,91,0.00,CLR,CLR,0.00,WeatherDisplay:10.37,2013-09-10 08:45:00,
2013-09-10 04:50:00,62.4,59.8,29.66,West,270,0.0,0.0,91,0.00,CLR,CLR,0.00,WeatherDisplay:10.37,2013-09-10 08:50:00,
2013-09-10 04:55:00,62.4,59.8,29.66,West,270,0.0,0.0,91,0.00,CLR,CLR,0.00,WeatherDisplay:10.37,2013-09-10 08:55:00,
2013-09-10 05:00:00,62.4,59.8,29.67,West,270,0.0,0.0,91,0.00,CLR,CLR,0.00,WeatherDisplay:10.37,2013-09-10 09:00:00,
2013-09-10 05:05:00,62.4,59.8,29.67,West,270,0.0,0.0,91,0.00,CLR,CLR,0.00,WeatherDisplay:10.37,2013-09-10 09:05:00,
2013-09-10 05:10:00,62.6,59.9,29.67,West,270,0.0,0.0,91,0.00,CLR,CLR,0.00,WeatherDisplay:10.37,2013-09-10 09:10:00,
2013-09-10 05:15:00,62.6,59.9,29.67,West,270,0.0,0.0,91,0.00,CLR,CLR,0.00,WeatherDisplay:10.37,2013-09-10 09:15:00,
2013-09-10 05:20:00,62.8,60.1,29.67,NW,315,0.0,0.0,91,0.00,CLR,CLR,0.00,WeatherDisplay:10.37,2013-09-10 09:20:00,
2013-09-10 05:26:00,62.8,60.1,29.67,NW,315,0.0,0.0,91,0.00,CLR,CLR,0.00,WeatherDisplay:10.37,2013-09-10 09:26:00,
2013-09-10 05:31:00,62.8,60.1,29.67,NW,315,0.0,0.0,91,0.00,CLR,CLR,0.00,WeatherDisplay:10.37,2013-09-10 09:31:00,
2013-09-10 05:37:00,62.8,60.1,29.67,NW,315,0.0,0.0,91,0.00,CLR,CLR,0.00,WeatherDisplay:10.37,2013-09-10 09:37:00,
2013-09-10 05:42:00,62.8,60.1,29.68,NW,315,0.0,0.0,91,0.00,CLR,CLR,0.00,WeatherDisplay:10.37,2013-09-10 09:42:00,
2013-09-10 05:47:00,63.0,60.3,29.68,NW,315,0.0,0.0,91,0.00,CLR,CLR,0.00,WeatherDisplay:10.37,2013-09-10 09:47:00,
2013-09-10 05:52:00,63.0,60.3,29.68,NW,315,0.0,0.0,91,0.00,CLR,CLR,0.00,WeatherDisplay:10.37,2013-09-10 09:52:00,
2013-09-10 05:57:00,63.1,60.5,29.67,NW,315,0.0,0.0,91,0.00,CLR,CLR,0.00,WeatherDisplay:10.37,2013-09-10 09:57:00,
2013-09-10 06:02:00,63.1,60.5,29.68,NW,315,0.0,0.0,91,0.00,CLR,CLR,0.00,WeatherDisplay:10.37,2013-09-10 10:02:00,
2013-09-10 06:07:00,63.1,60.5,29.68,NW,315,0.0,0.0,91,0.08,RA,RA,0.08,WeatherDisplay:10.37,2013-09-10 10:07:00,
2013-09-10 06:12:00,63.3,60.6,29.68,NW,315,0.0,0.0,91,0.08,RA,RA,0.08,WeatherDisplay:10.37,2013-09-10 10:12:00,
2013-09-10 06:17:00,63.3,61.0,29.68,NW,315,0.0,0.0,92,0.08,CLR,CLR,0.08,WeatherDisplay:10.37,2013-09-10 10:17:00,
2013-09-10 06:23:00,63.5,61.1,29.68,NW,315,0.0,0.0,92,0.08,CLR,CLR,0.08,WeatherDisplay:10.37,2013-09-10 10:23:00,
2013-09-10 06:28:00,63.5,61.1,29.69,NW,315,0.0,0.0,92,0.08,CLR,CLR,0.08,WeatherDisplay:10.37,2013-09-10 10:28:00,
2013-09-10 06:34:00,63.7,61.3,29.68,NW,315,0.0,0.0,92,0.08,CLR,CLR,0.08,WeatherDisplay:10.37,2013-09-10 10:34:00,
2013-09-10 06:39:00,63.7,61.3,29.68,NW,315,0.0,0.0,92,0.08,CLR,CLR,0.08,WeatherDisplay:10.37,2013-09-10 10:39:00,
2013-09-10 06:44:00,63.7,61.3,29.68,NW,315,0.0,0.0,92,0.08,CLR,CLR,0.08,WeatherDisplay:10.37,2013-09-10 10:44:00,
2013-09-10 06:49:00,63.5,61.1,29.68,NW,315,0.0,0.0,92,0.08,CLR,CLR,0.08,WeatherDisplay:10.37,2013-09-10 10:49:00,
2013-09-10 06:54:00,63.7,61.3,29.68,NW,315,0.0,0.0,92,0.08,CLR,CLR,0.08,WeatherDisplay:10.37,2013-09-10 10:54:00,
2013-09-10 06:59:00,63.7,61.3,29.68,NW,315,0.0,0.0,92,0.08,CLR,CLR,0.08,WeatherDisplay:10.37,2013-09-10 10:59:00,
2013-09-10 07:04:00,63.5,61.1,29.68,NW,315,0.0,0.0,92,0.08,CLR,CLR,0.08,WeatherDisplay:10.37,2013-09-10 11:04:00,
2013-09-10 07:09:00,63.5,61.1,29.69,NW,315,0.0,0.0,92,0.00,CLR,CLR,0.08,WeatherDisplay:10.37,2013-09-10 11:09:00,
2013-09-10 07:14:00,63.3,61.0,29.69,NW,315,0.0,0.0,92,0.00,CLR,CLR,0.08,WeatherDisplay:10.37,2013-09-10 11:14:00,
2013-09-10 07:19:00,63.3,61.0,29.69,South,180,0.0,0.0,92,0.00,CLR,CLR,0.08,WeatherDisplay:10.37,2013-09-10 11:19:00,
2013-09-10 07:24:00,63.3,61.0,29.69,SSE,158,0.0,0.0,92,0.00,CLR,CLR,0.08,WeatherDisplay:10.37,2013-09-10 11:24:00,
2013-09-10 07:29:00,63.3,61.0,29.69,SSE,158,0.0,0.0,92,0.00,CLR,CLR,0.08,WeatherDisplay:10.37,2013-09-10 11:29:00,
2013-09-10 07:34:00,63.3,61.0,29.69,SSE,158,0.0,0.0,92,0.00,CLR,CLR,0.08,WeatherDisplay:10.37,2013-09-10 11:34:00,
2013-09-10 07:39:00,63.3,61.0,29.69,SSE,158,0.0,0.0,92,0.00,CLR,CLR,0.08,WeatherDisplay:10.37,2013-09-10 11:39:00,
2013-09-10 07:44:00,63.3,61.0,29.69,SSE,158,0.0,0.0,92,0.00,CLR,CLR,0.08,WeatherDisplay:10.37,2013-09-10 11:44:00,
2013-09-10 07:49:00,63.3,61.0,29.69,SSE,158,0.0,0.0,92,0.00,CLR,CLR,0.08,WeatherDisplay:10.37,2013-09-10 11:49:00,
2013-09-10 07:54:00,63.3,61.0,29.70,SSE,158,1.1,1.1,92,0.00,CLR,CLR,0.08,WeatherDisplay:10.37,2013-09-10 11:54:00,
2013-09-10 07:59:00,63.5,61.1,29.70,SSE,158,39.1,39.1,92,0.00,CLR,CLR,0.08,WeatherDisplay:10.37,2013-09-10 11:59:00,
2013-09-10 08:04:00,63.7,61.3,29.70,SSE,158,0.0,0.0,92,0.00,CLR,CLR,0.08,WeatherDisplay:10.37,2013-09-10 12:04:00,
2013-09-10 08:10:00,63.7,61.3,29.70,SSE,158,0.0,0.0,92,0.00,CLR,CLR,0.08,WeatherDisplay:10.37,2013-09-10 12:10:00,
2013-09-10 08:16:00,63.7,61.3,29.70,SSE,158,0.0,0.0,92,0.00,CLR,CLR,0.08,WeatherDisplay:10.37,2013-09-10 12:16:00,
2013-09-10 08:22:00,64.0,61.7,29.70,SSE,158,0.0,0.0,92,0.00,CLR,CLR,0.08,WeatherDisplay:10.37,2013-09-10 12:22:00,
2013-09-10 08:27:00,64.0,61.7,29.70,SSE,158,0.0,0.0,92,0.00,CLR,CLR,0.08,WeatherDisplay:10.37,2013-09-10 12:27:00,
2013-09-10 08:32:00,64.0,61.7,29.70,SSE,158,0.0,0.0,92,0.00,CLR,CLR,0.08,WeatherDisplay:10.37,2013-09-10 12:32:00,
2013-09-10 08:37:00,64.2,61.8,29.71,SSE,158,0.0,0.0,92,0.00,CLR,CLR,0.08,WeatherDisplay:10.37,2013-09-10 12:37:00,
2013-09-10 08:42:00,64.2,61.8,29.70,SSE,158,0.0,0.0,92,0.00,CLR,CLR,0.08,WeatherDisplay:10.37,2013-09-10 12:42:00,
2013-09-10 08:47:00,64.2,61.8,29.71,SSE,158,0.0,0.0,92,0.00,CLR,CLR,0.08,WeatherDisplay:10.37,2013-09-10 12:47:00,
2013-09-10 08:52:00,64.6,62.2,29.71,SSE,158,0.0,0.0,92,0.00,CLR,CLR,0.08,WeatherDisplay:10.37,2013-09-10 12:52:00,
2013-09-10 08:57:00,64.6,62.2,29.71,SSE,158,0.0,0.0,92,0.00,CLR,CLR,0.08,WeatherDisplay:10.37,2013-09-10 12:57:00,
2013-09-10 09:02:00,64.8,62.4,29.72,SSE,158,0.0,0.0,92,0.00,CLR,CLR,0.08,WeatherDisplay:10.37,2013-09-10 13:02:00,
2013-09-10 09:07:00,64.8,62.4,29.71,SSE,158,0.0,0.0,92,0.00,CLR,CLR,0.08,WeatherDisplay:10.37,2013-09-10 13:07:00,
2013-09-10 09:12:00,64.9,62.6,29.71,SSE,158,21.0,21.0,92,0.00,CLR,CLR,0.08,WeatherDisplay:10.37,2013-09-10 13:12:00,
2013-09-10 09:17:00,64.9,62.6,29.72,SSE,158,0.0,0.0,92,0.00,CLR,CLR,0.08,WeatherDisplay:10.37,2013-09-10 13:17:00,
2013-09-10 09:22:00,64.9,62.6,29.72,SSE,158,0.0,0.0,92,0.00,CLR,CLR,0.08,WeatherDisplay:10.37,2013-09-10 13:22:00,
2013-09-10 09:27:00,64.9,62.6,29.72,SSW,202,0.0,0.0,92,0.00,CLR,CLR,0.08,WeatherDisplay:10.37,2013-09-10 13:27:00,
2013-09-10 09:32:00,64.9,62.6,29.72,SW,225,0.0,0.0,92,0.00,CLR,CLR,0.08,WeatherDisplay:10.37,2013-09-10 13:32:00,
2013-09-10 09:37:00,64.9,62.6,29.73,SW,225,0.0,0.0,92,0.00,CLR,CLR,0.08,WeatherDisplay:10.37,2013-09-10 13:37:00,
2013-09-10 09:42:00,65.1,62.7,29.73,SW,225,0.0,0.0,92,0.00,CLR,CLR,0.08,WeatherDisplay:10.37,2013-09-10 13:42:00,
2013-09-10 09:47:00,65.1,62.7,29.73,SW,225,0.0,0.0,92,0.00,CLR,CLR,0.08,WeatherDisplay:10.37,2013-09-10 13:47:00,
2013-09-10 09:52:00,65.3,62.9,29.74,SW,225,0.0,0.0,92,0.00,CLR,CLR,0.08,WeatherDisplay:10.37,2013-09-10 13:52:00,
2013-09-10 09:57:00,65.5,63.1,29.73,South,180,0.0,0.0,92,0.00,CLR,CLR,0.08,WeatherDisplay:10.37,2013-09-10 13:57:00,
2013-09-10 10:02:00,65.7,63.3,29.74,SSE,158,0.0,0.0,92,0.00,CLR,CLR,0.08,WeatherDisplay:10.37,2013-09-10 14:02:00,
2013-09-10 10:07:00,65.7,63.3,29.74,SSE,158,0.0,0.0,92,0.00,CLR,CLR,0.08,WeatherDisplay:10.37,2013-09-10 14:07:00,
2013-09-10 10:12:00,65.8,63.5,29.74,SW,225,0.0,0.0,92,0.00,CLR,CLR,0.08,WeatherDisplay:10.37,2013-09-10 14:12:00,
2013-09-10 10:18:00,66.0,63.6,29.74,SW,225,0.0,0.0,92,0.00,CLR,CLR,0.08,WeatherDisplay:10.37,2013-09-10 14:18:00,
2013-09-10 10:23:00,66.0,63.6,29.74,NNW,338,0.0,0.0,92,0.00,CLR,CLR,0.08,WeatherDisplay:10.37,2013-09-10 14:23:00,
2013-09-10 10:28:00,66.0,63.6,29.74,NNW,338,0.0,0.0,92,0.00,CLR,CLR,0.08,WeatherDisplay:10.37,2013-09-10 14:28:00,
2013-09-10 10:33:00,66.4,64.0,29.73,NNW,338,0.0,0.0,92,0.00,CLR,CLR,0.08,WeatherDisplay:10.37,2013-09-10 14:33:00,
2013-09-10 10:38:00,66.4,64.0,29.73,North,0,0.0,0.0,92,0.00,CLR,CLR,0.08,WeatherDisplay:10.37,2013-09-10 14:38:00,
2013-09-10 10:43:00,66.6,64.2,29.73,NNE,22,0.0,0.0,92,0.00,CLR,CLR,0.08,WeatherDisplay:10.37,2013-09-10 14:43:00,
2013-09-10 10:48:00,66.7,64.3,29.73,NE,45,0.0,0.0,92,0.00,CLR,CLR,0.08,WeatherDisplay:10.37,2013-09-10 14:48:00,
2013-09-10 10:53:00,66.7,64.3,29.73,NE,45,0.0,0.0,92,0.00,CLR,CLR,0.08,WeatherDisplay:10.37,2013-09-10 14:53:00,
2013-09-10 10:58:00,67.1,64.7,29.73,NE,45,0.0,0.0,92,0.00,CLR,CLR,0.08,WeatherDisplay:10.37,2013-09-10 14:58:00,
2013-09-10 11:03:00,67.5,65.1,29.73,NE,45,0.0,0.0,92,0.00,CLR,CLR,0.08,WeatherDisplay:10.37,2013-09-10 15:03:00,
2013-09-10 11:08:00,67.6,65.2,29.73,NE,45,0.0,0.0,92,0.00,CLR,CLR,0.08,WeatherDisplay:10.37,2013-09-10 15:08:00,
2013-09-10 11:13:00,67.8,65.4,29.73,NE,45,0.0,0.0,92,0.00,CLR,CLR,0.08,WeatherDisplay:10.37,2013-09-10 15:13:00,
2013-09-10 11:18:00,68.0,65.6,29.73,North,0,0.0,0.0,92,0.00,CLR,CLR,0.08,WeatherDisplay:10.37,2013-09-10 15:18:00,
2013-09-10 11:23:00,68.2,65.8,29.73,NW,315,0.0,0.0,92,0.00,CLR,CLR,0.08,WeatherDisplay:10.37,2013-09-10 15:23:00,
2013-09-10 11:28:00,68.4,65.9,29.73,NNW,338,0.0,0.0,92,0.00,CLR,CLR,0.08,WeatherDisplay:10.37,2013-09-10 15:28:00,
2013-09-10 11:33:00,68.5,66.1,29.73,NNW,338,0.0,0.0,92,0.00,CLR,CLR,0.08,WeatherDisplay:10.37,2013-09-10 15:33:00,
2013-09-10 11:38:00,68.7,66.3,29.73,NW,315,0.0,0.0,92,0.00,CLR,CLR,0.08,WeatherDisplay:10.37,2013-09-10 15:38:00,
2013-09-10 11:43:00,68.7,66.3,29.73,NW,315,0.0,0.0,92,0.00,CLR,CLR,0.08,WeatherDisplay:10.37,2013-09-10 15:43:00,
2013-09-10 11:48:00,68.9,66.5,29.73,NW,315,0.0,0.0,92,0.00,CLR,CLR,0.08,WeatherDisplay:10.37,2013-09-10 15:48:00,
2013-09-10 11:53:00,69.1,66.7,29.73,NW,315,0.0,0.0,92,0.00,CLR,CLR,0.08,WeatherDisplay:10.37,2013-09-10 15:53:00,
2013-09-10 11:58:00,69.4,67.0,29.74,NW,315,0.0,0.0,92,0.00,CLR,CLR,0.08,WeatherDisplay:10.37,2013-09-10 15:58:00,
2013-09-10 12:03:00,69.4,67.0,29.74,NW,315,0.0,0.0,92,0.00,CLR,CLR,0.08,WeatherDisplay:10.37,2013-09-10 16:03:00,
2013-09-10 12:08:00,69.6,67.2,29.74,NW,315,0.0,0.0,92,0.00,CLR,CLR,0.08,WeatherDisplay:10.37,2013-09-10 16:08:00,
2013-09-10 12:13:00,69.8,67.4,29.74,NW,315,0.0,0.0,92,0.00,CLR,CLR,0.08,WeatherDisplay:10.37,2013-09-10 16:13:00,
2013-09-10 12:18:00,70.0,67.9,29.75,NW,315,0.0,0.0,93,0.00,CLR,CLR,0.08,WeatherDisplay:10.37,2013-09-10 16:18:00,
2013-09-10 12:23:00,70.2,68.0,29.75,NW,315,0.0,0.0,93,0.00,CLR,CLR,0.08,WeatherDisplay:10.37,2013-09-10 16:23:00,
2013-09-10 12:28:00,70.2,68.0,29.75,NNW,338,1.3,1.3,93,0.00,CLR,CLR,0.08,WeatherDisplay:10.37,2013-09-10 16:28:00,
2013-09-10 12:33:00,70.2,68.0,29.75,WNW,292,0.0,0.0,93,0.00,CLR,CLR,0.08,WeatherDisplay:10.37,2013-09-10 16:33:00,
2013-09-10 12:38:00,70.3,68.2,29.75,NW,315,0.0,0.0,93,0.00,CLR,CLR,0.08,WeatherDisplay:10.37,2013-09-10 16:38:00,
2013-09-10 12:43:00,70.3,67.9,29.75,NW,315,1.1,1.1,92,0.00,CLR,CLR,0.08,WeatherDisplay:10.37,2013-09-10 16:43:00,
2013-09-10 12:48:00,70.3,67.9,29.75,NW,315,0.0,0.0,92,0.00,CLR,CLR,0.08,WeatherDisplay:10.37,2013-09-10 16:48:00,
2013-09-10 12:53:00,70.3,67.9,29.75,NNW,338,1.1,1.1,92,0.00,CLR,CLR,0.08,WeatherDisplay:10.37,2013-09-10 16:53:00,
2013-09-10 12:58:00,70.3,67.9,29.74,WSW,248,0.0,0.0,92,0.00,CLR,CLR,0.08,WeatherDisplay:10.37,2013-09-10 16:58:00,
2013-09-10 13:03:00,70.3,67.9,29.75,West,270,1.6,1.6,92,0.00,CLR,CLR,0.08,WeatherDisplay:10.37,2013-09-10 17:03:00,
2013-09-10 13:08:00,70.3,67.6,29.75,West,270,0.0,0.0,91,0.00,CLR,CLR,0.08,WeatherDisplay:10.37,2013-09-10 17:08:00,
2013-09-10 13:13:00,70.5,67.8,29.76,NW,315,1.3,1.3,91,0.00,CLR,CLR,0.08,WeatherDisplay:10.37,2013-09-10 17:13:00,
2013-09-10 13:18:00,71.4,68.7,29.75,West,270,1.1,1.1,91,0.00,CLR,CLR,0.08,WeatherDisplay:10.37,2013-09-10 17:18:00,
2013-09-10 13:23:00,72.0,69.2,29.75,West,270,1.1,1.1,91,0.00,CLR,CLR,0.08,WeatherDisplay:10.37,2013-09-10 17:23:00,
2013-09-10 13:28:00,72.3,68.9,29.76,NW,315,0.0,0.0,89,0.00,CLR,CLR,0.08,WeatherDisplay:10.37,2013-09-10 17:28:00,
2013-09-10 13:33:00,72.7,69.2,29.76,WNW,292,2.0,2.0,89,0.00,CLR,CLR,0.08,WeatherDisplay:10.37,2013-09-10 17:33:00,
2013-09-10 13:38:00,72.7,68.9,29.76,NW,315,1.1,1.1,88,0.00,CLR,CLR,0.08,WeatherDisplay:10.37,2013-09-10 17:38:00,
2013-09-10 13:49:00,73.0,68.6,29.76,WNW,292,0.0,0.0,86,0.00,CLR,CLR,0.08,WeatherDisplay:10.37,2013-09-10 17:49:00,
2013-09-10 13:54:00,73.2,68.4,29.76,NW,315,0.9,0.9,85,0.00,CLR,CLR,0.08,WeatherDisplay:10.37,2013-09-10 17:54:00,
2013-09-10 14:00:00,73.8,69.0,29.76,NW,315,1.1,1.1,85,0.00,CLR,CLR,0.08,WeatherDisplay:10.37,2013-09-10 18:00:00,
2013-09-10 14:05:00,74.8,69.7,29.76,NW,315,4.6,4.6,84,0.00,CLR,CLR,0.08,WeatherDisplay:10.37,2013-09-10 18:05:00,
2013-09-10 14:10:00,75.0,68.4,29.76,West,270,0.0,0.0,80,0.00,CLR,CLR,0.08,WeatherDisplay:10.37,2013-09-10 18:10:00,
2013-09-10 14:16:00,75.4,68.0,29.76,SW,225,2.5,2.5,78,0.00,CLR,CLR,0.08,WeatherDisplay:10.37,2013-09-10 18:16:00,
2013-09-10 14:21:00,75.0,67.7,29.76,West,270,0.0,0.0,78,0.00,CLR,CLR,0.08,WeatherDisplay:10.37,2013-09-10 18:21:00,
2013-09-10 14:26:00,74.5,67.5,29.77,WSW,248,1.1,1.1,79,0.00,CLR,CLR,0.08,WeatherDisplay:10.37,2013-09-10 18:26:00,
2013-09-10 14:32:00,74.3,67.0,29.78,West,270,1.1,1.1,78,0.00,CLR,CLR,0.08,WeatherDisplay:10.37,2013-09-10 18:32:00,
2013-09-10 14:37:00,73.9,67.0,29.78,NW,315,1.1,1.1,79,0.00,CLR,CLR,0.08,WeatherDisplay:10.37,2013-09-10 18:37:00,
2013-09-10 14:42:00,73.8,66.8,29.77,WNW,292,0.0,0.0,79,0.00,CLR,CLR,0.08,WeatherDisplay:10.37,2013-09-10 18:42:00,
2013-09-10 14:47:00,73.6,67.0,29.78,WNW,292,0.0,0.0,80,0.00,CLR,CLR,0.08,WeatherDisplay:10.37,2013-09-10 18:47:00,
2013-09-10 14:52:00,73.2,67.0,29.78,NNW,338,0.9,0.0,81,0.00,CLR,CLR,0.08,WeatherDisplay:10.37,2013-09-10 18:52:00,
2013-09-10 14:57:00,73.0,66.9,29.78,NNW,338,0.0,0.0,81,0.00,CLR,CLR,0.08,WeatherDisplay:10.37,2013-09-10 18:57:00,
2013-09-10 15:02:00,72.7,66.5,29.78,NW,315,0.0,0.0,81,0.00,CLR,CLR,0.08,WeatherDisplay:10.37,2013-09-10 19:02:00,
2013-09-10 15:07:00,72.5,66.7,29.78,NW,315,0.0,0.0,82,0.00,CLR,CLR,0.08,WeatherDisplay:10.37,2013-09-10 19:07:00,
2013-09-10 15:12:00,72.5,66.7,29.78,WSW,248,1.1,1.1,82,0.00,CLR,CLR,0.08,WeatherDisplay:10.37,2013-09-10 19:12:00,
2013-09-10 15:17:00,72.3,66.5,29.78,West,270,0.0,0.0,82,0.00,CLR,CLR,0.08,WeatherDisplay:10.37,2013-09-10 19:17:00,
2013-09-10 15:22:00,72.1,66.3,29.78,WNW,292,0.0,0.0,82,0.00,CLR,CLR,0.08,WeatherDisplay:10.37,2013-09-10 19:22:00,
2013-09-10 15:27:00,72.0,65.8,29.79,NW,315,52.5,52.5,81,0.00,CLR,CLR,0.08,WeatherDisplay:10.37,2013-09-10 19:27:00,
2013-09-10 15:32:00,72.0,65.8,29.79,NW,315,39.5,39.5,81,0.00,,,0.08,WeatherDisplay:10.37,2013-09-10 19:32:00,
2013-09-10 15:37:00,71.8,65.6,29.79,West,270,0.9,0.0,81,0.00,CLR,CLR,0.08,WeatherDisplay:10.37,2013-09-10 19:37:00,
2013-09-10 15:42:00,71.8,65.6,29.79,WNW,292,1.3,1.3,81,0.00,CLR,CLR,0.08,WeatherDisplay:10.37,2013-09-10 19:42:00,
2013-09-10 15:47:00,71.6,65.8,29.79,NW,315,0.0,0.0,82,0.00,CLR,CLR,0.08,WeatherDisplay:10.37,2013-09-10 19:47:00,
2013-09-10 15:52:00,71.4,65.6,29.79,NW,315,0.0,0.0,82,0.00,CLR,CLR,0.08,WeatherDisplay:10.37,2013-09-10 19:52:00,
2013-09-10 15:57:00,71.4,66.0,29.79,NW,315,1.1,1.1,83,0.00,CLR,CLR,0.08,WeatherDisplay:10.37,2013-09-10 19:57:00,
2013-09-10 16:02:00,70.9,65.5,29.79,NW,315,0.0,0.0,83,0.00,CLR,CLR,0.08,WeatherDisplay:10.37,2013-09-10 20:02:00,
2013-09-10 16:08:00,70.9,65.5,29.80,NW,315,0.0,0.0,83,0.00,CLR,CLR,0.08,WeatherDisplay:10.37,2013-09-10 20:08:00,
2013-09-10 16:13:00,70.5,65.4,29.79,East,90,0.0,0.0,84,0.00,CLR,CLR,0.08,WeatherDisplay:10.37,2013-09-10 20:13:00,
2013-09-10 16:18:00,70.3,65.3,29.79,East,90,0.0,0.0,84,0.00,CLR,CLR,0.08,WeatherDisplay:10.37,2013-09-10 20:18:00,
2013-09-10 16:23:00,70.3,65.6,29.80,ESE,112,0.0,0.0,85,0.00,CLR,CLR,0.08,WeatherDisplay:10.37,2013-09-10 20:23:00,
2013-09-10 16:28:00,70.3,66.0,29.79,ESE,112,0.0,0.0,86,0.00,CLR,CLR,0.08,WeatherDisplay:10.37,2013-09-10 20:28:00,
2013-09-10 16:33:00,70.3,66.0,29.80,East,90,0.0,0.0,86,0.00,CLR,CLR,0.08,WeatherDisplay:10.37,2013-09-10 20:33:00,
2013-09-10 16:38:00,70.3,66.0,29.79,East,90,0.0,0.0,86,0.00,CLR,CLR,0.08,WeatherDisplay:10.37,2013-09-10 20:38:00,
2013-09-10 16:43:00,70.3,66.3,29.80,North,0,0.0,0.0,87,0.00,CLR,CLR,0.08,WeatherDisplay:10.37,2013-09-10 20:43:00,
2013-09-10 16:48:00,70.3,66.3,29.80,SE,135,0.0,0.0,87,0.00,CLR,CLR,0.08,WeatherDisplay:10.37,2013-09-10 20:48:00,
2013-09-10 16:53:00,70.5,66.5,29.79,SE,135,0.0,0.0,87,0.00,CLR,CLR,0.08,WeatherDisplay:10.37,2013-09-10 20:53:00,
2013-09-10 16:58:00,70.5,66.5,29.79,ENE,68,0.0,0.0,87,0.00,CLR,CLR,0.08,WeatherDisplay:10.37,2013-09-10 20:58:00,
2013-09-10 17:03:00,70.7,66.6,29.79,ENE,68,0.0,0.0,87,0.00,CLR,CLR,0.08,WeatherDisplay:10.37,2013-09-10 21:03:00,
2013-09-10 17:08:00,70.9,66.8,29.80,NW,315,1.1,1.1,87,0.00,CLR,CLR,0.08,WeatherDisplay:10.37,2013-09-10 21:08:00,
2013-09-10 17:14:00,71.2,67.2,29.80,NW,315,0.0,0.0,87,0.00,CLR,CLR,0.08,WeatherDisplay:10.37,2013-09-10 21:14:00,
2013-09-10 17:19:00,71.4,67.3,29.80,West,270,0.0,0.0,87,0.00,CLR,CLR,0.08,WeatherDisplay:10.37,2013-09-10 21:19:00,
2013-09-10 17:24:00,71.4,67.3,29.80,NW,315,0.0,0.0,87,0.00,CLR,CLR,0.08,WeatherDisplay:10.37,2013-09-10 21:24:00,
2013-09-10 17:29:00,71.8,67.7,29.80,WNW,292,0.0,0.0,87,0.00,CLR,CLR,0.08,WeatherDisplay:10.37,2013-09-10 21:29:00,
2013-09-10 17:34:00,71.8,67.4,29.80,WNW,292,0.0,0.0,86,0.00,CLR,CLR,0.08,WeatherDisplay:10.37,2013-09-10 21:34:00,
2013-09-10 17:39:00,72.0,67.5,29.80,WNW,292,0.0,0.0,86,0.00,CLR,CLR,0.08,WeatherDisplay:10.37,2013-09-10 21:39:00,
2013-09-10 17:44:00,72.1,67.7,29.80,WNW,292,0.0,0.0,86,0.00,CLR,CLR,0.08,WeatherDisplay:10.37,2013-09-10 21:44:00,
2013-09-10 17:49:00,72.3,67.6,29.80,NW,315,0.0,0.0,85,0.00,CLR,CLR,0.08,WeatherDisplay:10.37,2013-09-10 21:49:00,
2013-09-10 17:54:00,72.5,67.7,29.80,West,270,0.0,0.0,85,0.00,CLR,CLR,0.08,WeatherDisplay:10.37,2013-09-10 21:54:00,
2013-09-10 17:59:00,72.5,67.7,29.80,WNW,292,0.0,0.0,85,0.00,CLR,CLR,0.08,WeatherDisplay:10.37,2013-09-10 21:59:00,
2013-09-10 18:04:00,72.3,67.6,29.80,WNW,292,0.0,0.0,85,0.00,CLR,CLR,0.08,WeatherDisplay:10.37,2013-09-10 22:04:00,
2013-09-10 18:09:00,72.3,67.6,29.80,WNW,292,0.0,0.0,85,0.00,CLR,CLR,0.08,WeatherDisplay:10.37,2013-09-10 22:09:00,
2013-09-10 18:14:00,72.3,67.6,29.80,NW,315,0.0,0.0,85,0.00,CLR,CLR,0.08,WeatherDisplay:10.37,2013-09-10 22:14:00,
2013-09-10 18:19:00,72.5,67.7,29.80,NW,315,0.0,0.0,85,0.00,CLR,CLR,0.08,WeatherDisplay:10.37,2013-09-10 22:19:00,
2013-09-10 18:24:00,72.5,67.4,29.80,NE,45,0.0,0.0,84,0.00,CLR,CLR,0.08,WeatherDisplay:10.37,2013-09-10 22:24:00,
2013-09-10 18:29:00,72.5,67.4,29.80,North,0,0.0,0.0,84,0.00,CLR,CLR,0.08,WeatherDisplay:10.37,2013-09-10 22:29:00,
2013-09-10 18:34:00,72.5,67.4,29.80,North,0,0.0,0.0,84,0.00,CLR,CLR,0.08,WeatherDisplay:10.37,2013-09-10 22:34:00,
2013-09-10 18:40:00,72.5,67.4,29.80,NNE,22,0.0,0.0,84,0.00,CLR,CLR,0.08,WeatherDisplay:10.37,2013-09-10 22:40:00,
2013-09-10 18:45:00,72.3,67.2,29.80,NNE,22,0.0,0.0,84,0.00,CLR,CLR,0.08,WeatherDisplay:10.37,2013-09-10 22:45:00,
2013-09-10 18:50:00,72.0,67.2,29.80,NNE,22,0.0,0.0,85,0.00,CLR,CLR,0.08,WeatherDisplay:10.37,2013-09-10 22:50:00,
2013-09-10 18:55:00,72.0,67.2,29.80,NNE,22,0.0,0.0,85,0.00,CLR,CLR,0.08,WeatherDisplay:10.37,2013-09-10 22:55:00,
2013-09-10 19:00:00,71.8,67.0,29.80,North,0,0.0,0.0,85,0.00,CLR,CLR,0.08,WeatherDisplay:10.37,2013-09-10 23:00:00,
2013-09-10 19:05:00,71.4,66.7,29.81,NNW,338,0.0,0.0,85,0.00,CLR,CLR,0.08,WeatherDisplay:10.37,2013-09-10 23:05:00,
2013-09-10 19:10:00,71.2,66.5,29.81,NW,315,0.0,0.0,85,0.00,CLR,CLR,0.08,WeatherDisplay:10.37,2013-09-10 23:10:00,
2013-09-10 19:15:00,70.7,66.0,29.81,NW,315,0.0,0.0,85,0.00,CLR,CLR,0.08,WeatherDisplay:10.37,2013-09-10 23:15:00,
2013-09-10 19:20:00,70.3,65.6,29.82,NW,315,0.0,0.0,85,0.00,CLR,CLR,0.08,WeatherDisplay:10.37,2013-09-10 23:20:00,
2013-09-10 19:25:00,70.2,65.4,29.82,SSW,202,0.0,0.0,85,0.00,CLR,CLR,0.08,WeatherDisplay:10.37,2013-09-10 23:25:00,
2013-09-10 19:30:00,70.0,65.3,29.82,SSW,202,0.0,0.0,85,0.00,CLR,CLR,0.08,WeatherDisplay:10.37,2013-09-10 23:30:00,
2013-09-10 19:35:00,69.8,65.4,29.81,SSW,202,0.0,0.0,86,0.00,CLR,CLR,0.08,WeatherDisplay:10.37,2013-09-10 23:35:00,
2013-09-10 19:40:00,69.6,65.2,29.82,SSW,202,0.0,0.0,86,0.00,CLR,CLR,0.08,WeatherDisplay:10.37,2013-09-10 23:40:00,
2013-09-10 19:46:00,69.4,65.1,29.81,SSW,202,0.0,0.0,86,0.00,CLR,CLR,0.08,WeatherDisplay:10.37,2013-09-10 23:46:00,
2013-09-10 19:51:00,69.3,64.9,29.82,SSW,202,0.0,0.0,86,0.00,CLR,CLR,0.08,WeatherDisplay:10.37,2013-09-10 23:51:00,
2013-09-10 19:56:00,69.1,64.7,29.82,SSW,202,0.0,0.0,86,0.00,CLR,CLR,0.08,WeatherDisplay:10.37,2013-09-10 23:56:00,
2013-09-10 20:01:00,68.7,64.4,29.82,West,270,0.0,0.0,86,0.00,CLR,CLR,0.08,WeatherDisplay:10.37,2013-09-11 00:01:00,
2013-09-10 20:06:00,68.5,64.5,29.82,NNE,22,0.0,0.0,87,0.00,CLR,CLR,0.08,WeatherDisplay:10.37,2013-09-11 00:06:00,
2013-09-10 20:11:00,68.4,64.3,29.82,NNE,22,0.0,0.0,87,0.00,CLR,CLR,0.08,WeatherDisplay:10.37,2013-09-11 00:11:00,
2013-09-10 20:16:00,68.2,64.2,29.82,ESE,112,0.0,0.0,87,0.00,CLR,CLR,0.08,WeatherDisplay:10.37,2013-09-11 00:16:00,
2013-09-10 20:21:00,67.8,63.8,29.82,ESE,112,0.0,0.0,87,0.00,CLR,CLR,0.08,WeatherDisplay:10.37,2013-09-11 00:21:00,
2013-09-10 20:26:00,67.8,63.8,29.82,ESE,112,0.0,0.0,87,0.00,CLR,CLR,0.08,WeatherDisplay:10.37,2013-09-11 00:26:00,
2013-09-10 20:31:00,67.6,63.6,29.82,ESE,112,0.0,0.0,87,0.00,CLR,CLR,0.08,WeatherDisplay:10.37,2013-09-11 00:31:00,
2013-09-10 20:36:00,67.3,63.6,29.82,ESE,112,0.0,0.0,88,0.00,CLR,CLR,0.08,WeatherDisplay:10.37,2013-09-11 00:36:00,
2013-09-10 20:41:00,67.3,63.6,29.82,ESE,112,0.0,0.0,88,0.00,CLR,CLR,0.08,WeatherDisplay:10.37,2013-09-11 00:41:00,
2013-09-10 20:46:00,67.1,63.4,29.82,ESE,112,0.0,0.0,88,0.00,CLR,CLR,0.08,WeatherDisplay:10.37,2013-09-11 00:46:00,
2013-09-10 20:51:00,66.7,63.1,29.83,ESE,112,0.0,0.0,88,0.00,CLR,CLR,0.08,WeatherDisplay:10.37,2013-09-11 00:51:00,
2013-09-10 20:56:00,66.7,63.1,29.82,ESE,112,0.0,0.0,88,0.00,CLR,CLR,0.08,WeatherDisplay:10.37,2013-09-11 00:56:00,
2013-09-10 21:01:00,66.4,62.7,29.83,ESE,112,0.0,0.0,88,0.00,CLR,CLR,0.08,WeatherDisplay:10.37,2013-09-11 01:01:00,
2013-09-10 21:06:00,66.2,62.5,29.83,ESE,112,0.0,0.0,88,0.00,CLR,CLR,0.08,WeatherDisplay:10.37,2013-09-11 01:06:00,
2013-09-10 21:11:00,66.0,62.4,29.83,ESE,112,0.0,0.0,88,0.00,CLR,CLR,0.08,WeatherDisplay:10.37,2013-09-11 01:11:00,
2013-09-10 21:16:00,66.0,62.4,29.83,ESE,112,0.0,0.0,88,0.00,CLR,CLR,0.08,WeatherDisplay:10.37,2013-09-11 01:16:00,
2013-09-10 21:21:00,65.8,62.2,29.83,ESE,112,0.0,0.0,88,0.00,CLR,CLR,0.08,WeatherDisplay:10.37,2013-09-11 01:21:00,
2013-09-10 21:26:00,65.8,62.5,29.84,ESE,112,0.0,0.0,89,0.00,CLR,CLR,0.08,WeatherDisplay:10.37,2013-09-11 01:26:00,
2013-09-10 21:31:00,65.5,62.2,29.84,ESE,112,0.0,0.0,89,0.00,CLR,CLR,0.08,WeatherDisplay:10.37,2013-09-11 01:31:00,
2013-09-10 21:36:00,65.5,62.2,29.84,ESE,112,0.0,0.0,89,0.00,CLR,CLR,0.08,WeatherDisplay:10.37,2013-09-11 01:36:00,
2013-09-10 21:41:00,65.3,62.0,29.84,ESE,112,0.0,0.0,89,0.00,CLR,CLR,0.08,WeatherDisplay:10.37,2013-09-11 01:41:00,
2013-09-10 21:46:00,65.1,61.5,29.84,ESE,112,0.0,0.0,88,0.00,CLR,CLR,0.08,WeatherDisplay:10.37,2013-09-11 01:46:00,
2013-09-10 21:51:00,64.9,61.6,29.84,ESE,112,0.0,0.0,89,0.00,CLR,CLR,0.08,WeatherDisplay:10.37,2013-09-11 01:51:00,
2013-09-10 21:56:00,64.9,61.6,29.84,ESE,112,0.0,0.0,89,0.00,CLR,CLR,0.08,WeatherDisplay:10.37,2013-09-11 01:56:00,
2013-09-10 22:02:00,64.8,61.4,29.84,ESE,112,0.0,0.0,89,0.00,CLR,CLR,0.08,WeatherDisplay:10.37,2013-09-11 02:02:00,
2013-09-10 22:07:00,64.6,61.3,29.84,ESE,112,0.0,0.0,89,0.00,CLR,CLR,0.08,WeatherDisplay:10.37,2013-09-11 02:07:00,
2013-09-10 22:12:00,64.6,61.3,29.83,ESE,112,0.0,0.0,89,0.00,CLR,CLR,0.08,WeatherDisplay:10.37,2013-09-11 02:12:00,
2013-09-10 22:17:00,64.2,60.9,29.84,ESE,112,0.0,0.0,89,0.00,CLR,CLR,0.08,WeatherDisplay:10.37,2013-09-11 02:17:00,
2013-09-10 22:22:00,64.2,60.9,29.83,ESE,112,0.0,0.0,89,0.00,CLR,CLR,0.08,WeatherDisplay:10.37,2013-09-11 02:22:00,
2013-09-10 22:27:00,64.2,60.9,29.83,ESE,112,0.0,0.0,89,0.00,CLR,CLR,0.08,WeatherDisplay:10.37,2013-09-11 02:27:00,
2013-09-10 22:32:00,64.2,60.9,29.83,ESE,112,0.0,0.0,89,0.00,CLR,CLR,0.08,WeatherDisplay:10.37,2013-09-11 02:32:00,
2013-09-10 22:37:00,64.2,60.9,29.83,ESE,112,0.0,0.0,89,0.00,CLR,CLR,0.08,WeatherDisplay:10.37,2013-09-11 02:37:00,
2013-09-10 22:42:00,64.0,60.7,29.83,ESE,112,0.0,0.0,89,0.00,CLR,CLR,0.08,WeatherDisplay:10.37,2013-09-11 02:42:00,
2013-09-10 22:48:00,64.0,60.7,29.83,ESE,112,0.0,0.0,89,0.00,CLR,CLR,0.08,WeatherDisplay:10.37,2013-09-11 02:48:00,
2013-09-10 22:53:00,63.9,60.6,29.83,NNE,22,0.0,0.0,89,0.00,CLR,CLR,0.08,WeatherDisplay:10.37,2013-09-11 02:53:00,
2013-09-10 22:58:00,63.7,60.4,29.83,North,0,46.0,46.0,89,0.00,CLR,CLR,0.08,WeatherDisplay:10.37,2013-09-11 02:58:00,
2013-09-10 23:03:00,63.7,60.4,29.84,NNW,338,46.0,46.0,89,0.00,,,0.08,WeatherDisplay:10.37,2013-09-11 03:03:00,
2013-09-10 23:08:00,63.7,60.4,29.83,NNW,338,0.0,0.0,89,0.00,CLR,CLR,0.08,WeatherDisplay:10.37,2013-09-11 03:08:00,
2013-09-10 23:13:00,63.7,60.4,29.83,NNW,338,0.0,0.0,89,0.00,CLR,CLR,0.08,WeatherDisplay:10.37,2013-09-11 03:13:00,
2013-09-10 23:18:00,63.7,60.4,29.83,WNW,292,0.0,0.0,89,0.00,CLR,CLR,0.08,WeatherDisplay:10.37,2013-09-11 03:18:00,
2013-09-10 23:23:00,63.7,60.4,29.83,WNW,292,0.0,0.0,89,0.00,CLR,CLR,0.08,WeatherDisplay:10.37,2013-09-11 03:23:00,
2013-09-10 23:28:00,63.7,60.4,29.83,WNW,292,0.0,0.0,89,0.00,CLR,CLR,0.08,WeatherDisplay:10.37,2013-09-11 03:28:00,
2013-09-10 23:33:00,63.7,60.4,29.83,WNW,292,0.0,0.0,89,0.00,CLR,CLR,0.08,WeatherDisplay:10.37,2013-09-11 03:33:00,
2013-09-10 23:38:00,63.9,60.6,29.83,WNW,292,0.0,0.0,89,0.00,CLR,CLR,0.08,WeatherDisplay:10.37,2013-09-11 03:38:00,
2013-09-10 23:43:00,63.7,60.7,29.83,WNW,292,0.0,0.0,90,0.00,CLR,CLR,0.08,WeatherDisplay:10.37,2013-09-11 03:43:00,
2013-09-10 23:48:00,63.7,60.7,29.83,WNW,292,0.0,0.0,90,0.00,CLR,CLR,0.08,WeatherDisplay:10.37,2013-09-11 03:48:00,
2013-09-10 23:54:00,63.7,60.7,29.83,WNW,292,0.0,0.0,90,0.00,CLR,CLR,0.08,WeatherDisplay:10.37,2013-09-11 03:54:00,
2013-09-10 23:59:00,63.7,60.7,29.83,WNW,292,0.0,0.0,90,0.00,CLR,CLR,0.08,WeatherDisplay:10.37,2013-09-11 03:59:00,